SWA3102 KSAN-KSFO

Flight info

Callsign SWA3102
Flight time 1h 7m
Altitude 38000
Route PADRZ2 IKAYE RIZIN SPLNT STOKD SERFR SERFR4
Aircraft B737/M-SDE2E3FGHIRWXY/LB1

Departure

Time 2026-04-22 01:45
Airport San Diego International Airport (KSAN)

Arrival

Time 2026-04-22 02:52
Airport San Francisco International Airport (KSFO)
Time Latitude Longitude Altitude Speed Heading
2026-04-22 01:09 32.73287 -117.19558 21 ft 0 kts 275°
2026-04-22 01:30 32.73287 -117.19554 22 ft 2 kts 278°
2026-04-22 01:31 32.73285 -117.19545 23 ft 2 kts 292°
2026-04-22 01:31 32.73279 -117.19532 23 ft 2 kts 317°
2026-04-22 01:31 32.73265 -117.19522 23 ft 2 kts 349°
2026-04-22 01:31 32.73257 -117.19521 23 ft 2 kts
2026-04-22 01:32 32.73247 -117.19523 24 ft 0 kts 18°
2026-04-22 01:36 32.73258 -117.19519 23 ft 10 kts 18°
2026-04-22 01:36 32.73338 -117.19482 24 ft 13 kts 41°
2026-04-22 01:36 32.73349 -117.19381 22 ft 14 kts 103°
2026-04-22 01:37 32.73325 -117.19267 22 ft 14 kts 105°
2026-04-22 01:37 32.73300 -117.19155 23 ft 14 kts 108°
2026-04-22 01:37 32.73269 -117.19031 22 ft 17 kts 105°
2026-04-22 01:37 32.73240 -117.18898 23 ft 16 kts 104°
2026-04-22 01:38 32.73212 -117.18771 25 ft 16 kts 104°
2026-04-22 01:38 32.73181 -117.18648 24 ft 15 kts 110°
2026-04-22 01:38 32.73147 -117.18533 23 ft 14 kts 104°
2026-04-22 01:38 32.73120 -117.18419 23 ft 15 kts 107°
2026-04-22 01:39 32.73085 -117.18272 26 ft 19 kts 107°
2026-04-22 01:39 32.73048 -117.18127 23 ft 18 kts 106°
2026-04-22 01:39 32.73014 -117.17983 24 ft 18 kts 106°
2026-04-22 01:39 32.72981 -117.17846 25 ft 17 kts 105°
2026-04-22 01:40 32.72948 -117.17731 25 ft 12 kts 108°
2026-04-22 01:40 32.72953 -117.17685 24 ft 0 kts 73°
2026-04-22 01:44 32.72953 -117.17684 24 ft 3 kts 73°
2026-04-22 01:44 32.72982 -117.17608 24 ft 12 kts 35°
2026-04-22 01:44 32.73036 -117.17654 24 ft 11 kts 282°
2026-04-22 01:44 32.73116 -117.17983 23 ft 83 kts 285°
2026-04-22 01:45 32.73339 -117.18928 30 ft 154 kts 285°
2026-04-22 01:45 32.73677 -117.20227 698 ft 170 kts 288°
2026-04-22 01:45 32.74076 -117.21570 1680 ft 174 kts 290°
2026-04-22 01:45 32.74640 -117.22861 2584 ft 179 kts 301°
2026-04-22 01:46 32.75356 -117.24088 3548 ft 181 kts 305°
2026-04-22 01:46 32.76160 -117.25362 4034 ft 208 kts 303°
2026-04-22 01:46 32.77063 -117.26871 4318 ft 240 kts 302°
2026-04-22 01:46 32.78062 -117.28582 4994 ft 258 kts 302°
2026-04-22 01:47 32.79071 -117.30329 6040 ft 260 kts 301°
2026-04-22 01:47 32.80111 -117.32113 7062 ft 264 kts 302°
2026-04-22 01:47 32.81234 -117.33877 8033 ft 268 kts 303°
2026-04-22 01:47 32.82384 -117.35641 9053 ft 271 kts 303°
2026-04-22 01:48 32.83539 -117.37411 9985 ft 276 kts 303°
2026-04-22 01:48 32.84740 -117.39261 10585 ft 293 kts 303°
2026-04-22 01:48 32.86040 -117.41279 10790 ft 321 kts 303°
2026-04-22 01:48 32.87458 -117.43479 11110 ft 343 kts 303°
2026-04-22 01:49 32.88930 -117.45756 11824 ft 349 kts 303°
2026-04-22 01:49 32.90397 -117.48027 12690 ft 351 kts 303°
2026-04-22 01:49 32.91892 -117.50347 13575 ft 354 kts 303°
2026-04-22 01:49 32.93399 -117.52691 14343 ft 358 kts 303°
2026-04-22 01:50 32.94917 -117.55054 14766 ft 359 kts 303°
2026-04-22 01:50 32.96441 -117.57430 14947 ft 361 kts 303°
2026-04-22 01:50 32.97979 -117.59829 15244 ft 366 kts 303°
2026-04-22 01:50 32.99516 -117.62230 16077 ft 367 kts 302°
2026-04-22 01:51 33.01065 -117.64650 17012 ft 367 kts 302°
2026-04-22 01:51 33.02625 -117.67089 17856 ft 369 kts 302°
2026-04-22 01:51 33.04167 -117.69503 18568 ft 373 kts 302°
2026-04-22 01:51 33.05752 -117.71983 19222 ft 377 kts 302°
2026-04-22 01:52 33.07533 -117.74337 19898 ft 387 kts 311°
2026-04-22 01:52 33.09603 -117.76429 20592 ft 392 kts 314°
2026-04-22 01:52 33.11733 -117.78495 21263 ft 395 kts 314°
2026-04-22 01:52 33.13866 -117.80586 21895 ft 398 kts 314°
2026-04-22 01:53 33.15971 -117.82698 22499 ft 401 kts 313°
2026-04-22 01:53 33.18101 -117.84864 23097 ft 404 kts 313°
2026-04-22 01:53 33.20226 -117.87080 23720 ft 405 kts 310°
2026-04-22 01:53 33.22261 -117.89405 24239 ft 406 kts 308°
2026-04-22 01:54 33.24262 -117.91803 24754 ft 407 kts 307°
2026-04-22 01:54 33.26264 -117.94238 25257 ft 409 kts 307°
2026-04-22 01:54 33.28246 -117.96650 25732 ft 412 kts 307°
2026-04-22 01:54 33.30268 -117.99101 26202 ft 415 kts 307°
2026-04-22 01:55 33.32315 -118.01570 26663 ft 417 kts 307°
2026-04-22 01:55 33.34379 -118.04050 27115 ft 420 kts 307°
2026-04-22 01:55 33.36446 -118.06529 27553 ft 422 kts 307°
2026-04-22 01:55 33.38511 -118.09002 28052 ft 423 kts 307°
2026-04-22 01:56 33.40597 -118.11500 28539 ft 424 kts 307°
2026-04-22 01:56 33.42691 -118.14009 28941 ft 427 kts 307°
2026-04-22 01:56 33.44805 -118.16546 29298 ft 430 kts 306°
2026-04-22 01:56 33.46905 -118.19068 29664 ft 433 kts 306°
2026-04-22 01:57 33.49037 -118.21629 30162 ft 432 kts 306°
2026-04-22 01:57 33.51158 -118.24174 30710 ft 429 kts 306°
2026-04-22 01:57 33.53263 -118.26700 31247 ft 426 kts 306°
2026-04-22 01:57 33.55353 -118.29215 31697 ft 425 kts 306°
2026-04-22 01:58 33.57446 -118.31738 32131 ft 425 kts 306°
2026-04-22 01:58 33.59531 -118.34255 32524 ft 425 kts 306°
2026-04-22 01:58 33.61609 -118.36763 32974 ft 423 kts 306°
2026-04-22 01:58 33.63678 -118.39262 33469 ft 420 kts 306°
2026-04-22 01:59 33.65710 -118.41716 33940 ft 418 kts 306°
2026-04-22 01:59 33.67756 -118.44190 34303 ft 417 kts 306°
2026-04-22 01:59 33.69801 -118.46667 34614 ft 417 kts 306°
2026-04-22 01:59 33.71841 -118.49140 34942 ft 416 kts 306°
2026-04-22 02:00 33.73865 -118.51593 35315 ft 414 kts 306°
2026-04-22 02:00 33.75896 -118.54058 35617 ft 414 kts 306°
2026-04-22 02:00 33.77926 -118.56523 35898 ft 414 kts 306°
2026-04-22 02:00 33.79926 -118.58953 36208 ft 413 kts 306°
2026-04-22 02:01 33.81952 -118.61415 36540 ft 411 kts 306°
2026-04-22 02:01 33.83964 -118.63863 36838 ft 411 kts 306°
2026-04-22 02:01 33.85980 -118.66317 37117 ft 410 kts 306°
2026-04-22 02:01 33.87968 -118.68739 37451 ft 408 kts 306°
2026-04-22 02:02 33.89962 -118.71169 37812 ft 405 kts 306°
2026-04-22 02:02 33.91946 -118.73590 38116 ft 405 kts 306°
2026-04-22 02:02 33.95914 -118.78445 38107 ft 410 kts 306°
2026-04-22 02:03 33.99921 -118.83341 38108 ft 406 kts 306°
2026-04-22 02:03 34.03880 -118.88189 38104 ft 404 kts 306°
2026-04-22 02:04 34.09741 -118.95387 38149 ft 402 kts 306°
2026-04-22 02:05 34.13662 -119.00208 38115 ft 401 kts 306°
2026-04-22 02:05 34.16849 -119.05578 38119 ft 391 kts 295°
2026-04-22 02:06 34.19644 -119.11190 38107 ft 393 kts 294°
2026-04-22 02:06 34.22498 -119.16864 38116 ft 396 kts 295°
2026-04-22 02:07 34.25400 -119.22551 38144 ft 399 kts 295°
2026-04-22 02:07 34.28322 -119.28254 38123 ft 401 kts 295°
2026-04-22 02:08 34.31263 -119.33997 38104 ft 401 kts 295°
2026-04-22 02:08 34.34203 -119.39751 38112 ft 402 kts 295°
2026-04-22 02:09 34.37128 -119.45489 38108 ft 401 kts 295°
2026-04-22 02:09 34.40064 -119.51246 38135 ft 401 kts 296°
2026-04-22 02:10 34.43652 -119.56541 38114 ft 410 kts 307°
2026-04-22 02:10 34.47665 -119.61403 38091 ft 409 kts 307°
2026-04-22 02:11 34.51677 -119.66280 38112 ft 406 kts 307°
2026-04-22 02:11 34.54989 -119.70341 38096 ft 405 kts 307°
2026-04-22 02:12 34.58953 -119.75224 38097 ft 404 kts 307°
2026-04-22 02:12 34.62874 -119.80066 38093 ft 403 kts 307°
2026-04-22 02:13 34.66818 -119.84941 38120 ft 403 kts 307°
2026-04-22 02:13 34.70746 -119.89804 38105 ft 403 kts 307°
2026-04-22 02:14 34.74650 -119.94646 38117 ft 403 kts 307°
2026-04-22 02:14 34.78579 -119.99524 38110 ft 403 kts 307°
2026-04-22 02:15 34.82506 -120.04406 38101 ft 403 kts 307°
2026-04-22 02:15 34.86431 -120.09293 38099 ft 403 kts 307°
2026-04-22 02:16 34.90332 -120.14159 38158 ft 403 kts 307°
2026-04-22 02:16 34.94247 -120.19048 38125 ft 401 kts 307°
2026-04-22 02:17 34.98154 -120.23936 38116 ft 402 kts 307°
2026-04-22 02:17 35.02039 -120.28804 38114 ft 402 kts 307°
2026-04-22 02:18 35.05941 -120.33700 38109 ft 402 kts 307°
2026-04-22 02:18 35.09861 -120.38555 38120 ft 404 kts 309°
2026-04-22 02:19 35.14010 -120.43223 38119 ft 405 kts 310°
2026-04-22 02:19 35.18195 -120.47844 38110 ft 404 kts 310°
2026-04-22 02:20 35.22344 -120.52472 38107 ft 402 kts 310°
2026-04-22 02:20 35.26438 -120.57073 38106 ft 402 kts 310°
2026-04-22 02:21 35.30568 -120.61730 38105 ft 404 kts 310°
2026-04-22 02:21 35.34706 -120.66401 38102 ft 404 kts 310°
2026-04-22 02:22 35.38824 -120.71055 38112 ft 404 kts 310°
2026-04-22 02:22 35.42978 -120.75759 38107 ft 406 kts 310°
2026-04-22 02:23 35.47134 -120.80467 38118 ft 405 kts 310°
2026-04-22 02:23 35.51507 -120.84865 38133 ft 411 kts 315°
2026-04-22 02:24 35.56098 -120.89074 38120 ft 411 kts 315°
2026-04-22 02:24 35.60662 -120.93269 38121 ft 411 kts 315°
2026-04-22 02:25 35.65236 -120.97510 38122 ft 411 kts 315°
2026-04-22 02:25 35.69802 -121.01764 38108 ft 410 kts 315°
2026-04-22 02:26 35.74321 -121.05983 38141 ft 410 kts 315°
2026-04-22 02:26 35.78878 -121.10244 38116 ft 410 kts 315°
2026-04-22 02:27 35.83398 -121.14476 38112 ft 409 kts 315°
2026-04-22 02:27 35.87934 -121.18730 38104 ft 409 kts 315°
2026-04-22 02:28 35.92465 -121.22986 38119 ft 410 kts 315°
2026-04-22 02:28 35.97011 -121.27262 38101 ft 410 kts 315°
2026-04-22 02:29 36.01554 -121.31547 37524 ft 416 kts 315°
2026-04-22 02:29 36.03856 -121.33715 36921 ft 413 kts 315°
2026-04-22 02:29 36.06143 -121.35868 36301 ft 411 kts 314°
2026-04-22 02:29 36.08472 -121.37935 35649 ft 413 kts 318°
2026-04-22 02:30 36.10896 -121.39861 34894 ft 416 kts 319°
2026-04-22 02:30 36.13336 -121.41717 34149 ft 417 kts 320°
2026-04-22 02:30 36.15826 -121.43597 33241 ft 419 kts 320°
2026-04-22 02:30 36.18315 -121.45490 32401 ft 418 kts 319°
2026-04-22 02:31 36.20761 -121.47363 31865 ft 410 kts 319°
2026-04-22 02:31 36.23173 -121.49227 31265 ft 405 kts 319°
2026-04-22 02:31 36.25513 -121.51047 30686 ft 399 kts 318°
2026-04-22 02:31 36.27841 -121.52864 30144 ft 392 kts 318°
2026-04-22 02:32 36.30133 -121.54658 29510 ft 386 kts 318°
2026-04-22 02:32 36.32385 -121.56421 28970 ft 378 kts 318°
2026-04-22 02:32 36.34597 -121.58155 28407 ft 371 kts 318°
2026-04-22 02:32 36.36739 -121.59836 27885 ft 365 kts 317°
2026-04-22 02:33 36.38869 -121.61510 27342 ft 359 kts 317°
2026-04-22 02:33 36.40967 -121.63161 26827 ft 354 kts 317°
2026-04-22 02:33 36.43040 -121.64794 26342 ft 350 kts 317°
2026-04-22 02:33 36.45095 -121.66412 25786 ft 347 kts 317°
2026-04-22 02:34 36.47119 -121.68005 25286 ft 342 kts 317°
2026-04-22 02:34 36.49104 -121.69560 25081 ft 330 kts 317°
2026-04-22 02:34 36.51001 -121.71051 24717 ft 323 kts 317°
2026-04-22 02:34 36.52891 -121.72541 24289 ft 321 kts 316°
2026-04-22 02:35 36.54790 -121.74047 23819 ft 323 kts 316°
2026-04-22 02:35 36.56677 -121.75546 23248 ft 327 kts 317°
2026-04-22 02:35 36.58610 -121.77082 22714 ft 331 kts 317°
2026-04-22 02:35 36.60557 -121.78625 22228 ft 330 kts 317°
2026-04-22 02:36 36.62487 -121.80150 21698 ft 325 kts 317°
2026-04-22 02:36 36.64382 -121.81649 21202 ft 320 kts 318°
2026-04-22 02:36 36.66254 -121.83133 20718 ft 316 kts 318°
2026-04-22 02:36 36.68100 -121.84599 20232 ft 313 kts 318°
2026-04-22 02:37 36.69926 -121.86051 19741 ft 310 kts 318°
2026-04-22 02:37 36.71715 -121.87472 19280 ft 307 kts 318°
2026-04-22 02:37 36.73527 -121.88892 18831 ft 307 kts 321°
2026-04-22 02:37 36.75548 -121.89906 18380 ft 320 kts 335°
2026-04-22 02:38 36.77737 -121.90537 17867 ft 324 kts 339°
2026-04-22 02:38 36.79934 -121.91114 17359 ft 329 kts 340°
2026-04-22 02:38 36.82203 -121.91709 16866 ft 336 kts 340°
2026-04-22 02:38 36.84523 -121.92332 16360 ft 340 kts 340°
2026-04-22 02:39 36.86824 -121.92958 15850 ft 337 kts 341°
2026-04-22 02:39 36.89106 -121.93588 15363 ft 333 kts 341°
2026-04-22 02:39 36.91354 -121.94215 14857 ft 330 kts 341°
2026-04-22 02:39 36.93592 -121.94841 14333 ft 328 kts 341°
2026-04-22 02:40 36.95786 -121.95486 13906 ft 325 kts 340°
2026-04-22 02:40 36.97951 -121.96283 13639 ft 323 kts 338°
2026-04-22 02:40 37.00101 -121.97134 13096 ft 322 kts 338°
2026-04-22 02:40 37.02234 -121.97990 12550 ft 321 kts 338°
2026-04-22 02:41 37.04345 -121.98834 11946 ft 322 kts 338°
2026-04-22 02:41 37.06496 -121.99688 11346 ft 322 kts 338°
2026-04-22 02:41 37.08644 -122.00534 10769 ft 322 kts 339°
2026-04-22 02:41 37.10748 -122.01360 10446 ft 315 kts 339°
2026-04-22 02:42 37.12806 -122.02164 10295 ft 303 kts 339°
2026-04-22 02:42 37.14783 -122.02936 10146 ft 291 kts 339°
2026-04-22 02:42 37.16680 -122.03679 10015 ft 280 kts 339°
2026-04-22 02:42 37.18538 -122.04410 9660 ft 278 kts 339°
2026-04-22 02:43 37.20352 -122.05124 9332 ft 275 kts 339°
2026-04-22 02:43 37.22178 -122.05842 8996 ft 273 kts 339°
2026-04-22 02:43 37.23991 -122.06554 8630 ft 271 kts 339°
2026-04-22 02:43 37.25783 -122.07256 8292 ft 268 kts 339°
2026-04-22 02:44 37.27556 -122.07952 7951 ft 266 kts 339°
2026-04-22 02:44 37.29313 -122.08643 7587 ft 263 kts 338°
2026-04-22 02:44 37.31052 -122.09328 7281 ft 261 kts 338°
2026-04-22 02:44 37.32765 -122.10004 6945 ft 261 kts 338°
2026-04-22 02:45 37.34500 -122.10689 6611 ft 260 kts 338°
2026-04-22 02:45 37.36228 -122.11369 6245 ft 259 kts 338°
2026-04-22 02:45 37.37947 -122.12041 5900 ft 258 kts 340°
2026-04-22 02:45 37.39674 -122.12642 5574 ft 255 kts 341°
2026-04-22 02:46 37.41383 -122.13217 5259 ft 253 kts 341°
2026-04-22 02:46 37.43051 -122.13782 4961 ft 250 kts 341°
2026-04-22 02:46 37.44729 -122.14353 4643 ft 247 kts 340°
2026-04-22 02:46 37.46381 -122.14919 4342 ft 245 kts 340°
2026-04-22 02:47 37.48017 -122.15480 4049 ft 242 kts 341°
2026-04-22 02:47 37.49638 -122.16037 3758 ft 240 kts 341°
2026-04-22 02:47 37.51223 -122.16580 3459 ft 231 kts 341°
2026-04-22 02:47 37.52746 -122.17124 3187 ft 220 kts 334°
2026-04-22 02:48 37.53811 -122.18254 3133 ft 190 kts 296°
2026-04-22 02:48 37.54402 -122.19682 3018 ft 187 kts 296°
2026-04-22 02:48 37.55034 -122.21127 2699 ft 182 kts 296°
2026-04-22 02:48 37.55617 -122.22500 2423 ft 171 kts 295°
2026-04-22 02:49 37.56150 -122.23777 2194 ft 163 kts 295°
2026-04-22 02:49 37.56669 -122.25024 1975 ft 157 kts 294°
2026-04-22 02:49 37.57163 -122.26210 1767 ft 147 kts 294°
2026-04-22 02:49 37.57609 -122.27280 1608 ft 130 kts 292°
2026-04-22 02:50 37.58024 -122.28278 1402 ft 125 kts 292°
2026-04-22 02:50 37.58432 -122.29257 1227 ft 128 kts 294°
2026-04-22 02:50 37.58847 -122.30253 1048 ft 126 kts 294°
2026-04-22 02:50 37.59253 -122.31228 874 ft 126 kts 295°
2026-04-22 02:51 37.59653 -122.32184 699 ft 124 kts 294°
2026-04-22 02:51 37.60049 -122.33134 535 ft 120 kts 293°
2026-04-22 02:51 37.60434 -122.34067 382 ft 121 kts 292°
2026-04-22 02:51 37.60825 -122.35050 223 ft 126 kts 296°
2026-04-22 02:52 37.61242 -122.36014 66 ft 123 kts 295°
2026-04-22 02:52 37.61617 -122.36895 22 ft 95 kts 297°
2026-04-22 02:52 37.61835 -122.37415 21 ft 51 kts 296°
2026-04-22 02:52 37.61983 -122.37777 24 ft 38 kts 297°
2026-04-22 02:53 37.61945 -122.37961 22 ft 14 kts 219°
2026-04-22 02:53 37.61868 -122.38010 21 ft 13 kts 236°
2026-04-22 02:53 37.61831 -122.38079 22 ft 5 kts 235°
2026-04-22 02:53 37.61826 -122.38087 21 ft 0 kts 234°